Voltar ao catálogo

STARLINK-37700

AtivoComunicaçõesSSO
NORAD 69215·PAYLOAD·🇺🇸 United States

Lançado May 26, 2026 de Vandenberg Space Force Base

Loading…

Próximas Passagens (próximas 24 horas)

TLE

AtualizadoSource: CelesTrak SupGP

Época: Sep 15, 2026, 02:58 UTC

1 69215C 26115E   26258.12409722 -.00059403  00000+0 -18442-2 0  2589
2 69215  97.2831 274.2450 0001323  90.8666 267.7650 15.33465531    13

Acompanhe STARLINK-37700 em tempo real com AllMySat

Download on the App Store